UAE41P KSFO-OMDB

Flight info

Callsign UAE41P
Flight time N/A
Altitude 33000
Route SNTNA2 DEDHD DCT KO51E DCT KO66G DCT KU78I DCT KU90K DCT ITREK/N0488F350 DCT ELTAX DCT YYQ DCT 61N090W 6430N08000W/N0491F370 67N070W/M085F370 DCT CANEL DCT 68N060W 68N050W 6730N04000W 6630N03000W 65N020W 63N010W DCT GUNPA/N0495F390 DCT RIVEX DCT SONAL DCT BINKA DCT ATMEV DCT REGLI DCT LITKU DCT BUDOP DCT EKNAB DCT NAVOD DCT ADORU UG80 EKI UN739 TUMER UT38 KETEK/N0498F410 UT38 VESAR DCT BALMA UR655 LEBOR R655 KTN R785 RASLI P559 TRF R23 NEVOL N318 TAMRO T503 KSA M321 RESAL T533 RAPMA DCT KUVSO DCT RIBOT M550 GOLGU M318 ATUDO/N0460F350 M318 RURAL Q317 LORID
Aircraft A388/J-SADE2E3FGHIJ3J4J5M1RWXY/LB1D1

Departure

Time N/A
Airport San Francisco International Airport (KSFO)

Arrival

Time 2026-05-04 10:44
Airport Dubai International Airport (OMDB)
Time Latitude Longitude Altitude Speed Heading
2026-05-04 09:42 23.20532 51.54095 40801 ft 522 kts 96°
2026-05-04 09:43 23.20014 51.61824 40804 ft 522 kts 96°
2026-05-04 09:43 23.19484 51.69683 40803 ft 521 kts 96°
2026-05-04 09:44 23.18950 51.77532 40802 ft 521 kts 96°
2026-05-04 09:46 23.16773 52.08894 40801 ft 521 kts 96°
2026-05-04 09:46 23.16218 52.16740 40803 ft 521 kts 96°
2026-05-04 09:47 23.15663 52.24542 40803 ft 521 kts 96°
2026-05-04 09:49 23.17958 52.51627 40792 ft 519 kts 66°
2026-05-04 09:49 23.19518 52.55143 40794 ft 517 kts 60°
2026-05-04 09:51 23.31941 52.78911 40802 ft 518 kts 59°
2026-05-04 09:51 23.35457 52.85759 40802 ft 518 kts 59°
2026-05-04 09:52 23.38965 52.92600 40803 ft 518 kts 59°
2026-05-04 09:52 23.42471 52.99381 40758 ft 515 kts 58°
2026-05-04 09:52 23.44277 53.02730 40533 ft 511 kts 58°
2026-05-04 09:53 23.46085 53.06059 40288 ft 509 kts 58°
2026-05-04 09:53 23.47881 53.09391 40049 ft 510 kts 58°
2026-05-04 09:53 23.49664 53.12723 39812 ft 511 kts 58°
2026-05-04 09:53 23.51454 53.16081 39578 ft 512 kts 58°
2026-05-04 09:54 23.53245 53.19445 39339 ft 513 kts 58°
2026-05-04 09:54 23.55026 53.22790 39099 ft 513 kts 58°
2026-05-04 09:54 23.56798 53.26122 38902 ft 513 kts 58°
2026-05-04 09:54 23.58586 53.29486 38670 ft 514 kts 58°
2026-05-04 09:55 23.60374 53.32852 38435 ft 514 kts 58°
2026-05-04 09:55 23.62126 53.36152 38179 ft 515 kts 58°
2026-05-04 09:55 23.63933 53.39562 37911 ft 516 kts 58°
2026-05-04 09:55 23.65729 53.42951 37638 ft 516 kts 58°
2026-05-04 09:56 23.67530 53.46350 37369 ft 517 kts 58°
2026-05-04 09:56 23.69328 53.49747 37143 ft 517 kts 58°
2026-05-04 09:56 23.71126 53.53146 36886 ft 518 kts 58°
2026-05-04 09:56 23.72912 53.56507 36630 ft 519 kts 58°
2026-05-04 09:57 23.74727 53.59909 36385 ft 520 kts 58°
2026-05-04 09:57 23.76549 53.63325 36138 ft 521 kts 58°
2026-05-04 09:57 23.78368 53.66741 35899 ft 522 kts 58°
2026-05-04 09:57 23.80200 53.70183 35659 ft 523 kts 58°
2026-05-04 09:58 23.82025 53.73620 35420 ft 523 kts 58°
2026-05-04 09:58 23.83849 53.77055 35192 ft 524 kts 58°
2026-05-04 09:58 23.85683 53.80512 34953 ft 525 kts 58°
2026-05-04 10:00 23.98467 54.04662 33315 ft 522 kts 58°
2026-05-04 10:00 24.00277 54.08092 33066 ft 520 kts 58°
2026-05-04 10:02 24.12438 54.31924 31357 ft 510 kts 66°
2026-05-04 10:04 24.23165 54.54951 29732 ft 481 kts 27°
2026-05-04 10:04 24.26092 54.56521 29484 ft 472 kts 16°
2026-05-04 10:04 24.29224 54.57465 28990 ft 462 kts
2026-05-04 10:04 24.32398 54.57713 28329 ft 451 kts 353°
2026-05-04 10:05 24.35459 54.57250 27704 ft 439 kts 342°
2026-05-04 10:05 24.38363 54.56355 27058 ft 432 kts 340°
2026-05-04 10:05 24.41244 54.55465 26366 ft 429 kts 342°
2026-05-04 10:05 24.44142 54.54703 25730 ft 426 kts 344°
2026-05-04 10:06 24.46991 54.54064 25089 ft 423 kts 346°
2026-05-04 10:06 24.49878 54.53480 24404 ft 421 kts 347°
2026-05-04 10:06 24.52751 54.52931 23745 ft 419 kts 348°
2026-05-04 10:08 24.69625 54.50352 19797 ft 397 kts 358°
2026-05-04 10:08 24.72382 54.50773 19138 ft 397 kts 14°
2026-05-04 10:08 24.74868 54.51970 18513 ft 397 kts 30°
2026-05-04 10:08 24.77150 54.53624 17923 ft 392 kts 31°
2026-05-04 10:09 24.79390 54.55248 17727 ft 375 kts 31°
2026-05-04 10:09 24.81521 54.56782 17609 ft 359 kts 31°
2026-05-04 10:09 24.83541 54.58233 17463 ft 344 kts 31°
2026-05-04 10:09 24.85541 54.59667 17354 ft 331 kts 30°
2026-05-04 10:10 24.87404 54.61002 17256 ft 318 kts 30°
2026-05-04 10:10 24.89230 54.62311 17158 ft 307 kts 30°
2026-05-04 10:10 24.91034 54.63605 16758 ft 306 kts 30°
2026-05-04 10:10 24.92791 54.64864 16392 ft 305 kts 30°
2026-05-04 10:11 24.94555 54.66153 16047 ft 304 kts 31°
2026-05-04 10:11 24.96278 54.67500 15703 ft 303 kts 32°
2026-05-04 10:11 24.97981 54.68857 15351 ft 301 kts 33°
2026-05-04 10:11 24.99676 54.70203 15022 ft 299 kts 32°
2026-05-04 10:12 25.01360 54.71531 14659 ft 299 kts 32°
2026-05-04 10:12 25.03034 54.72848 14495 ft 294 kts 32°
2026-05-04 10:12 25.04683 54.74146 14345 ft 289 kts 32°
2026-05-04 10:12 25.06326 54.75442 14230 ft 290 kts 32°
2026-05-04 10:13 25.07962 54.76732 14104 ft 290 kts 32°
2026-05-04 10:13 25.09580 54.78003 13953 ft 289 kts 32°
2026-05-04 10:13 25.11220 54.79285 13750 ft 288 kts 32°
2026-05-04 10:13 25.12849 54.80559 13542 ft 287 kts 32°
2026-05-04 10:14 25.14482 54.81838 13341 ft 285 kts 32°
2026-05-04 10:14 25.16076 54.83145 13117 ft 286 kts 37°
2026-05-04 10:16 25.26589 54.92970 11725 ft 280 kts 37°
2026-05-04 10:16 25.28038 54.94406 11548 ft 281 kts 44°
2026-05-04 10:16 25.29195 54.96161 11331 ft 285 kts 57°
2026-05-04 10:16 25.30032 54.98148 11145 ft 287 kts 62°
2026-05-04 10:17 25.30866 55.00154 10945 ft 286 kts 61°
2026-05-04 10:17 25.31707 55.02120 10731 ft 284 kts 61°
2026-05-04 10:19 25.34171 55.15468 9416 ft 294 kts 130°
2026-05-04 10:19 25.32743 55.17058 9225 ft 293 kts 137°
2026-05-04 10:19 25.31253 55.18585 9016 ft 291 kts 136°
2026-05-04 10:19 25.29838 55.20119 8824 ft 289 kts 134°
2026-05-04 10:20 25.28456 55.21721 8720 ft 282 kts 132°
2026-05-04 10:20 25.27155 55.23295 8641 ft 272 kts 131°
2026-05-04 10:20 25.25907 55.24829 8410 ft 268 kts 131°
2026-05-04 10:20 25.24660 55.26367 8094 ft 269 kts 131°
2026-05-04 10:21 25.23414 55.27905 7933 ft 270 kts 131°
2026-05-04 10:21 25.22142 55.29462 7683 ft 273 kts 131°
2026-05-04 10:21 25.20907 55.30977 7602 ft 265 kts 131°
2026-05-04 10:21 25.19675 55.32487 7342 ft 265 kts 131°
2026-05-04 10:22 25.17539 55.35762 6861 ft 263 kts 120°
2026-05-04 10:22 25.16580 55.37489 6656 ft 262 kts 120°
2026-05-04 10:22 25.15621 55.39187 6440 ft 261 kts 120°
2026-05-04 10:23 25.14658 55.40886 6215 ft 260 kts 121°
2026-05-04 10:23 25.13705 55.42568 5941 ft 259 kts 121°
2026-05-04 10:25 25.07186 55.54184 4222 ft 252 kts 121°
2026-05-04 10:25 25.06269 55.55831 3906 ft 253 kts 121°
2026-05-04 10:25 25.05356 55.57455 3726 ft 249 kts 121°
2026-05-04 10:25 25.04432 55.59094 3500 ft 250 kts 121°
2026-05-04 10:26 25.03518 55.60729 3366 ft 248 kts 120°
2026-05-04 10:26 25.02636 55.62329 3099 ft 249 kts 121°
2026-05-04 10:26 25.01735 55.63947 2991 ft 245 kts 121°
2026-05-04 10:26 25.00863 55.65527 3001 ft 240 kts 122°
2026-05-04 10:27 25.00002 55.67092 2999 ft 239 kts 122°
2026-05-04 10:27 24.99135 55.68631 2993 ft 232 kts 122°
2026-05-04 10:27 24.98318 55.70064 3002 ft 208 kts 122°
2026-05-04 10:27 24.97593 55.71340 3008 ft 191 kts 123°
2026-05-04 10:28 24.96888 55.72565 3003 ft 191 kts 124°
2026-05-04 10:28 24.96132 55.73833 3013 ft 200 kts 124°
2026-05-04 10:28 24.95373 55.75111 3000 ft 204 kts 124°
2026-05-04 10:28 24.94591 55.76440 3001 ft 204 kts 122°
2026-05-04 10:29 24.94138 55.77890 3009 ft 202 kts 92°
2026-05-04 10:29 24.94290 55.79023 3012 ft 195 kts 65°
2026-05-04 10:29 24.95080 55.80171 3012 ft 187 kts 32°
2026-05-04 10:29 24.96204 55.80781 3002 ft 174 kts 16°
2026-05-04 10:30 24.97325 55.81214 3005 ft 168 kts 17°
2026-05-04 10:30 24.98400 55.81703 3000 ft 170 kts 17°
2026-05-04 10:30 24.99537 55.81840 3001 ft 163 kts 345°
2026-05-04 10:30 25.00466 55.81200 3003 ft 158 kts 311°
2026-05-04 10:31 25.01034 55.80156 2998 ft 160 kts 302°
2026-05-04 10:31 25.01593 55.79137 3005 ft 153 kts 303°
2026-05-04 10:32 25.04555 55.73891 2995 ft 136 kts 304°
2026-05-04 10:33 25.05039 55.73018 3003 ft 132 kts 304°
2026-05-04 10:33 25.05509 55.72173 2998 ft 129 kts 303°
2026-05-04 10:33 25.05978 55.71323 2997 ft 131 kts 302°
2026-05-04 10:33 25.06459 55.70469 3005 ft 134 kts 303°
2026-05-04 10:34 25.06940 55.69587 2989 ft 133 kts 302°
2026-05-04 10:34 25.07412 55.68708 3006 ft 134 kts 305°
2026-05-04 10:34 25.07906 55.67844 2988 ft 133 kts 304°
2026-05-04 10:34 25.08388 55.66966 2987 ft 135 kts 302°
2026-05-04 10:35 25.08857 55.66100 2995 ft 130 kts 303°
2026-05-04 10:35 25.09341 55.65257 2996 ft 131 kts 305°
2026-05-04 10:35 25.09835 55.64405 2984 ft 131 kts 303°
2026-05-04 10:35 25.10301 55.63540 3002 ft 134 kts 303°
2026-05-04 10:36 25.10778 55.62656 2996 ft 131 kts 303°
2026-05-04 10:36 25.11247 55.61805 2992 ft 129 kts 304°
2026-05-04 10:36 25.11714 55.60960 2986 ft 132 kts 304°
2026-05-04 10:36 25.12198 55.60099 2986 ft 133 kts 304°
2026-05-04 10:37 25.12676 55.59231 2983 ft 131 kts 304°
2026-05-04 10:37 25.13149 55.58386 2982 ft 129 kts 304°
2026-05-04 10:37 25.13622 55.57529 2985 ft 133 kts 304°
2026-05-04 10:37 25.14099 55.56653 2979 ft 134 kts 305°
2026-05-04 10:39 25.17031 55.51341 2348 ft 134 kts 304°
2026-05-04 10:39 25.17506 55.50482 2186 ft 128 kts 305°
2026-05-04 10:39 25.17967 55.49661 2048 ft 126 kts 305°
2026-05-04 10:40 25.18431 55.48826 1860 ft 127 kts 303°
2026-05-04 10:40 25.18895 55.47983 1716 ft 131 kts 304°
2026-05-04 10:40 25.19387 55.47125 1554 ft 134 kts 303°
2026-05-04 10:40 25.19837 55.46252 1367 ft 127 kts 303°
2026-05-04 10:41 25.20299 55.45455 1229 ft 122 kts 302°
2026-05-04 10:41 25.20725 55.44647 1063 ft 120 kts 299°
2026-05-04 10:41 25.21162 55.43855 925 ft 123 kts 306°
2026-05-04 10:41 25.21638 55.43059 788 ft 127 kts 301°
2026-05-04 10:42 25.22081 55.42216 646 ft 130 kts 299°
2026-05-04 10:42 25.22543 55.41362 491 ft 129 kts 302°
2026-05-04 10:42 25.23013 55.40524 276 ft 127 kts 304°
2026-05-04 10:42 25.23476 55.39701 132 ft 126 kts 304°
2026-05-04 10:43 25.23914 55.38916 61 ft 104 kts 301°
2026-05-04 10:44 25.24791 55.37164 33 ft 17 kts 269°
2026-05-04 10:45 25.24790 55.37135 32 ft 5 kts 268°
2026-05-04 10:45 25.24790 55.37060 31 ft 11 kts 272°
2026-05-04 10:45 25.24797 55.36978 30 ft 11 kts 287°
2026-05-04 10:45 25.24807 55.36903 29 ft 9 kts 245°
2026-05-04 10:46 25.24770 55.36854 29 ft 9 kts 214°
2026-05-04 10:46 25.24712 55.36815 29 ft 10 kts 211°
2026-05-04 10:46 25.24649 55.36773 29 ft 11 kts 211°
2026-05-04 10:46 25.24582 55.36727 29 ft 12 kts 211°
2026-05-04 10:47 25.24513 55.36679 29 ft 12 kts 218°
2026-05-04 10:47 25.24463 55.36607 29 ft 12 kts 249°
2026-05-04 10:47 25.24457 55.36521 28 ft 11 kts 285°
2026-05-04 10:47 25.24491 55.36449 27 ft 9 kts 298°
2026-05-04 10:49 25.24660 55.36303 27 ft 0 kts 32°
2026-05-04 10:49 25.24661 55.36304 27 ft 0 kts 32°